#timestamp,LO_Frequency,Hit,StdDev 
1510297215.4,286047001.6,N
1510297235.2,286047003.7,N
1510297255.1,286047004.4,N
1510297256.0,286047004.4,N
1510297275.8,286047004.0,N
1510297295.6,286047001.7,N
1510297315.5,286047002.5,N
1510297335.3,286047003.3,N
1510297355.1,286047003.3,N
1510297375.8,286047005.1,N
1510297395.7,286047006.3,N
1510297415.5,286047004.5,N
1510297435.3,286047003.1,N
1510297455.2,286047005.6,N
1510297475.9,286047003.2,N
1510297495.7,286047001.3,N
1510297515.6,286047005.7,N
1510297535.4,286047005.9,N
1510297555.2,286047006.7,Y
1510297575.1,286047002.5,P
1510297576.0,286047002.5,P
1510297595.8,286047001.6,P
1510297615.6,286047001.8,N
1510297635.5,286047001.5,N
1510297655.3,286047005.7,Y
1510297675.1,286047001.8,P
1510297695.9,286047000.6,N
1510297715.7,286047000.6,N
1510297735.5,286047000.6,N
1510297755.3,286047001.1,N
1510297775.2,286047001.7,N
1510297795.0,286047001.3,N
1510297795.9,286047001.3,N
1510297815.7,286046999.3,N
1510297835.6,286046994.6,Y
1510297855.4,286046987.1,P
1510297875.2,286046981.4,N
1510297895.1,286046977.4,N
1510297896.0,286046977.4,N
1510297915.8,286046973.1,Y
1510297935.6,286046988.2,P
1510297955.5,286046988.7,P
1510297975.3,286046985.9,P
1510297995.2,286046983.4,Y
1510298015.9,286046995.4,P
1510298035.7,286046994.4,N
1510298055.5,286046992.6,N
1510298075.4,286046992.7,N
1510298095.2,286046988.7,Y
1510298115.0,286046995.5,P
1510298115.9,286046995.5,N
1510298135.8,286046996.3,N
1510298155.6,286046993.9,Y
1510298175.5,286046997.2,P
1510298195.3,286046996.2,P
1510298215.1,286046994.3,P
1510298235.9,286046995.2,Y
1510298255.7,286047002.7,P
1510298275.5,286047000.1,N
1510298295.3,286046999.2,N
1510298315.2,286046999.3,N
1510298335.0,286046999.6,N
1510298335.9,286046999.6,N
1510298355.7,286046998.4,N
1510298375.6,286046995.0,N
1510298395.4,286046994.0,N
1510298415.2,286046993.6,N
1510298435.1,286046991.7,Y
1510298436.0,286046991.7,P
1510298455.8,286046995.2,N
1510298475.6,286046997.0,N
1510298495.5,286046999.8,N
1510298515.3,286047000.8,N
1510298535.1,286046999.8,N
1510298555.9,286046999.0,N
1510298575.7,286046995.8,N
1510298595.5,286046995.1,N
1510298615.4,286046994.9,N
1510298635.2,286046995.4,N
1510298655.0,286046995.4,N
1510298655.9,286046995.4,N
1510298675.7,286046995.9,N
1510298695.6,286046994.6,N
1510298715.4,286046991.8,Y
1510298735.2,286047001.2,P
1510298755.1,286046996.7,N
1510298756.0,286046996.7,N
1510298775.8,286046993.4,Y
1510298795.7,286046997.7,P
1510298815.5,286046997.5,P
1510298835.3,286046995.0,P
1510298855.2,286046995.6,Y
1510298875.9,286046998.7,P
1510298895.7,286046999.6,N
1510298915.5,286046993.4,P
1510298935.4,286046994.6,N
1510298955.2,286046991.7,Y
1510298975.0,286046995.4,P
1510298976.0,286046995.4,P
1510298995.8,286046998.0,P
1510299015.6,286046995.6,Y
1510299035.5,286047002.5,P
1510299055.3,286047005.6,N
1510299075.1,286047010.0,N
1510299095.8,286047006.4,N
1510299115.7,286047008.9,N
1510299135.5,286047012.0,N
1510299155.3,286047008.6,N
1510299175.2,286047008.7,N
1510299195.9,286047002.5,N
1510299215.7,286047002.2,N
1510299235.6,286047001.6,N
1510299255.4,286046998.9,N
1510299275.2,286046996.5,N
1510299295.1,286046998.5,N
1510299296.0,286046998.5,N
1510299315.8,286046997.1,N
1510299335.6,286046997.7,N
1510299355.5,286046993.3,N
1510299375.3,286046994.3,N
1510299395.1,286046992.4,N
1510299415.8,286046991.2,N
1510299435.7,286046991.9,N
1510299455.5,286046990.7,N
1510299475.3,286046987.2,N
1510299495.2,286046987.0,N
1510299515.0,286046988.5,N
1510299515.9,286046988.5,N
1510299535.7,286046990.3,N
1510299555.6,286046991.0,N
1510299575.4,286046988.6,N
1510299595.2,286046988.6,N
1510299615.1,286046991.4,N
1510299616.0,286046991.4,N
1510299635.8,286046988.5,N
1510299655.6,286046987.2,N
1510299675.5,286046987.0,N
1510299695.3,286046988.9,N
1510299715.1,286046991.7,N
1510299735.9,286046994.8,N
1510299755.7,286046993.5,N
1510299775.5,286046994.1,N
1510299795.3,286046991.3,N
1510299815.2,286046991.3,N
1510299835.0,286046989.5,Y
1510299835.9,286046989.5,P
1510299855.8,286046998.3,N
1510299875.6,286046999.1,N
1510299895.4,286046999.9,N
1510299915.2,286046996.0,N
1510299935.1,286046995.1,N
1510299936.0,286046995.1,N
1510299955.8,286046998.5,N
1510299975.6,286046997.8,N
1510299995.5,286046993.9,N
1510300015.3,286046999.5,N
1510300035.1,286046997.5,N
1510300055.9,286046993.3,N
1510300075.7,286046990.5,Y
1510300095.5,286046994.0,P
1510300115.4,286046992.3,P
1510300135.2,286046994.0,P
1510300155.0,286046999.4,N
1510300155.9,286046999.4,N
1510300175.8,286046997.8,N
1510300195.6,286046998.4,N
1510300215.4,286046998.8,N
1510300235.3,286047001.1,N
1510300255.1,286046997.3,N
1510300256.0,286046997.3,N
1510300275.8,286046998.9,N
1510300295.6,286046999.4,N
1510300315.5,286046997.2,N
1510300335.3,286046997.6,N
1510300355.1,286046997.6,N
1510300375.9,286046995.1,N
1510300395.7,286046997.4,N
1510300415.5,286046999.1,N
1510300435.4,286046997.4,N
1510300455.2,286046995.3,N
1510300475.0,286046997.7,N
1510300475.9,286046997.7,N
1510300495.8,286046996.9,N
1510300515.6,286046999.1,N
1510300535.4,286046993.8,Y
1510300555.3,286046995.1,P
1510300575.1,286046996.2,P
1510300576.0,286046996.2,P
1510300595.8,286046994.1,Y
1510300615.7,286046999.0,P
1510300635.5,286047000.5,N
1510300655.3,286047001.5,N
1510300675.2,286047002.8,N
1510300695.9,286047000.7,N
1510300715.7,286047000.1,N
1510300735.5,286047002.8,N
1510300755.4,286047002.6,N
1510300775.2,286047000.9,N
1510300795.0,286047000.3,N
1510300795.9,286047000.3,N
